Regional Weather Roundup
Issued by NWS

Home | Current Version | Previous Version | Text Only | Print | Product List | Glossary On
Versions: 1 2 3 4 5 6 7 8 9 10 11 12 13 14 15 16 17 18 19 20 21 22 23 24 25 26 27 28 29 30 31 32 33 34 35 36 37 38 39 40 41 42 43 44 45 46 47 48 49 50
000
ASUS43 KLMK 192310
RWRKY
KENTUCKY REGIONAL WEATHER ROUNDUP
NATIONAL WEATHER SERVICE LOUISVILLE KY
700 PM EDT SUN OCT 19 2014

NOTE "FAIR" INDICATES FEW OR NO CLOUDS BELOW 12,000 FEET
WITH NO SIGNIFICANT WEATHER AND/OR OBSTRUCTIONS TO VISIBILITY.

KYZ001>023-026-027-061>063-070>075-200000-
WESTERN AND SOUTH CENTRAL KENTUCKY

CITY           SKY/WX    TMP DP  RH WIND       PRES   REMARKS
PADUCAH        PTCLDY    57  47  69 SE3       30.11S
HENDERSON      PTCLDY    57  43  58 W3        30.12S
OWENSBORO      PTCLDY    58  44  59 NE6       30.12F
HOPKINSVILLE   MOCLDY    58  46  63 N2        30.12S
BOWLING GREEN  MOCLDY    58  44  60 SE5       30.12F
GLASGOW        PTCLDY    56  44  64 CALM      30.13S
$$

KYZ024-025-028>034-038-045-046-053-200000-
NORTH CENTRAL KENTUCKY

CITY           SKY/WX    TMP DP  RH WIND       PRES   REMARKS
LOUISVILLE/SDF MOCLDY    58  40  51 CALM      30.13S
LOUISVILLE/LOU MOCLDY    57  39  51 CALM      30.13F
FORT KNOX      MOCLDY    56  47  71 N2        30.11F
$$

KYZ035>037-039>044-047>052-055>060-089>105-200000-
NORTHEAST KENTUCKY

CITY           SKY/WX    TMP DP  RH WIND       PRES   REMARKS
LEXINGTON      CLEAR     57  41  55 NE3       30.13S
COVINGTON      PTCLDY    52  39  61 S3        30.11F
FRANKFORT      PTCLDY    53  41  63 CALM      30.12S
$$

KYZ054-064>069-076>088-106>120-200000-
SOUTHEAST KENTUCKY

CITY           SKY/WX    TMP DP  RH WIND       PRES   REMARKS
JACKSON        CLEAR     53  38  56 CALM      30.14S
LONDON         CLEAR     56  41  57 CALM      30.13S
SOMERSET       CLEAR     54  41  62 N3        30.14R
MIDDLESBORO    CLEAR     54  45  70 CALM      30.13R
MONTICELLO     HAZE      53  45  74 CALM      30.14S VSB 1/2
$$




USA.gov is the U.S. government's official web portal to all federal, state and local government web resources and services.